Weather Roundup
Issued by NWS

Home | Current Version | Previous Version | Graphics & Text | Print | Product List | Glossary Off
Versions: 1 2 3 4 5 6 7 8 9 10 11 12 13 14 15 16 17 18 19 20 21 22 23 24 25 26 27 28 29 30 31 32 33 34 35 36 37 38 39 40 41 42 43 44 45 46 47 48 49 50

000
NZUS93 KARX 201410
HRRWXR

CURRENT HOURLY OBSERVATIONS ACROSS
MUCH OF THE UPPER MISSISSIPPI VALLEY
NATIONAL WEATHER SERVICE LA CROSSE WI
900 AM CDT MON APR 20 2015


...SOUTHEAST MINNESOTA...


CITY           SKY/WX    TMP DP  RH WIND       PRES   REMARKS
ROCHESTER      CLOUDY    36  30  79 NW26G38   29.47S WCI  24
ROCHESTER/MAYO CLOUDY    37  31  81 W23G32    29.47S WCI  25
WINONA         CLOUDY    41  34  75 NW12G21   29.44S
AUSTIN         CLOUDY    37  30  75 NW22G32   29.51R WCI  27
ALBERT LEA     PTSUNNY   37  32  81 NW18G32   29.53S WCI  27
DODGE CENTER   CLOUDY    37  30  75 NW22G28   29.49S WCI  27
PRESTON        CLOUDY    36  32  84 NW20G29   29.47S WCI  25
OWATONNA       CLOUDY    37  28  70 NW24      29.53S WCI  26
FARIBAULT      CLOUDY    37  30  75 W14G24    29.52F WCI  29
$$

...ELSEWHERE IN MINNESOTA...


CITY           SKY/WX    TMP DP  RH WIND       PRES   REMARKS
MINNEAPOLIS    CLOUDY    37  27  67 NW22G30   29.51S WCI  26
INTNL FALLS    CLOUDY    29  25  85 W17G24    29.44F WCI  17
DULUTH         LGT SNOW  34  29  82 NW14G24   29.38S WCI  25
RED WING       CLOUDY    39  30  70 NW13G21   29.47R WCI  32
REDWOOD FALLS  PTSUNNY   38  29  70 NW25G35   29.62S WCI  27
MANKATO        PTSUNNY   37  27  65 NW25G35   29.57S WCI  26
WORTHINGTON    CLOUDY    41  30  65 NW23G32   29.65F
FAIRMONT       CLOUDY    39  27  60 NW29G37   29.60S WCI  28
$$

...SOUTHWEST WISCONSIN...


CITY           SKY/WX    TMP DP  RH WIND       PRES   REMARKS
LA CROSSE      LGT RAIN  42  38  85 NW18G30   29.41R
PRAIRIE DU CHI DRIZZLE   39  38  97 NW14G22   29.44R WCI  31
BOSCOBEL       LGT RAIN  43  38  82 W13       29.41S
LONE ROCK      LGT RAIN  41  37  86 NW15      29.38S
PLATTEVILLE    CLOUDY    42  40  91 W17       29.40R
FORT MC COY    RAIN      39  38  94 NW9G17    29.40R WCI  33
VIROQUA        CLOUDY    39  39 100 NW12G22   29.39S WCI  32
WIS DELLS      LGT RAIN  37  35  93 NW10      29.34R WCI  29
$$

...ELSEWHERE IN WISCONSIN...


CITY           SKY/WX    TMP DP  RH WIND       PRES   REMARKS
MILWAUKEE      CLOUDY    49  45  86 W12       29.21R
MADISON        LGT RAIN  40  36  86 NW17G29   29.32R WCI  31
GREEN BAY      LGT RAIN  44  42  93 W10       29.19F FOG
EAU CLAIRE     CLOUDY    39  34  82 NW10      29.39S WCI  32
BLACK RVR FLS  RAIN      39  38  97 NW10G18   29.38S WCI  32
MEDFORD        RAIN      33  33  96 NW10      29.31S WCI  25
WAUSAU         LGT SNOW  35  33  92 NW12G20   29.26R FOG     WCI  27
WIS RAPIDS     LGT SNOW  35  32  88 NW14      29.32R FOG     WCI  26
MARSHFIELD     LGT RAIN  37  34  89 NW16      29.31S WCI  28
RICE LAKE      CLOUDY    38  32  79 NW10G26   29.42S WCI  31
$$

...NORTHEAST IOWA...


CITY           SKY/WX    TMP DP  RH WIND       PRES   REMARKS
DECORAH        CLOUDY    39  34  81 NW12G24   29.45R WCI  32
MASON CITY     MOSUNNY   41  31  67 NW32G41   29.56S
CHARLES CITY   CLOUDY    39  36  87 NW17G26   29.52S WCI  30
OELWEIN        PTSUNNY   41  34  75 NW32G43   29.50S
$$

...ELSEWHERE IN IOWA...


CITY           SKY/WX    TMP DP  RH WIND       PRES   REMARKS
DES MOINES     CLOUDY    46  36  68 NW22G29   29.66R
IOWA CITY      PTSUNNY   45  36  70 W26G37    29.54R
FORT DODGE     PTSUNNY   43  34  70 NW13G22   29.65S
$$

...NORTHERN ILLINOIS...


CITY           SKY/WX    TMP DP  RH WIND       PRES   REMARKS
CHICAGO-OHARE  CLOUDY    49  46  90 W21G29    29.27R
CHICAGO-MIDWAY CLOUDY    51  46  83 W15G29    29.30R
MOLINE         MOSUNNY   47  36  65 NW23G35   29.47S
ROCKFORD       CLOUDY    45  40  82 W20       29.35R
PEORIA         CLOUDY    49  39  68 NW12G30   29.49R
$$

NOTE: "FAIR" INDICATES FEW OR NO CLOUDS BELOW 12,000 FEET WITH NO
SIGNIFICANT WEATHER AND/OR OBSTRUCTIONS TO VISIBILITY. WIND
SPEEDS ARE IN MILES-PER-HOUR.



USA.gov is the U.S. government's official web portal to all federal, state and local government web resources and services.